Weather History for Warrenton, VA

Change the Weather History Date:

Saturday, January 5, 2013

  Actual Average (KHEF) Record (KHEF)
Temperature  
Mean Temperature 34 °F -  
Max Temperature 49 °F 43 °F 68 °F (1998)
Min Temperature 20 °F 24 °F 10 °F (1999)
Degree Days  
Heating Degree Days 31    
Moisture  
Dew Point 26 °F    
Average Humidity 73    
Maximum Humidity 100    
Minimum Humidity 43    
Precipitation  
Precipitation 0.00 in - - ()
Sea Level Pressure  
Sea Level Pressure 30.26 in    
Wind  
Wind Speed 2 mph (SSE)    
Max Wind Speed 7 mph    
Max Gust Speed -    
Visibility 10 miles    
Events Rain    
Averages and records for this station are not official NWS values.
T = Trace of Precipitation, MM = Missing Value Source: NWS Daily Summary

Daily Weather History Graph

Daily Weather History Graph

Search for Another Location

Airport:

Trip Planner

Search our weather history database for the weather conditions in past years. The results will help you decide how hot, cold, wet, or windy it might be!

Date:

Astronomy

Jan. 05, 2013 Rise Set
Actual Time 7:28 AM EST 5:04 PM EST
Civil Twilight 6:59 AM EST 5:33 PM EST
Nautical Twilight 6:26 AM EST 6:06 PM EST
Astronomical Twilight 5:54 AM EST 6:38 PM EST
Moon 12:35 AM EST (1/5) 11:50 AM EST (1/5)
Length of Visible Light 10h 34m
Length of Day
9h 35m
Last Quarter, 44% of the Moon is Illuminated
Jan 5
Last Quarter
Jan 11
New
Jan 18
First Quarter
Jan 26
Full
Feb 3
Last Quarter

Hourly Weather History & Observations

Time (EST) Temp. Windchill Dew Point Humidity Pressure Visibility Wind Dir Wind Speed Gust Speed Precip Events Conditions
12:15 AM 26.6 °F 20.0 °F 23.9 °F 90% 30.16 in 10.0 mi South 5.8 mph - N/A   Clear
12:35 AM 24.8 °F - 22.5 °F 91% 30.16 in 10.0 mi Calm Calm - N/A   Clear
12:55 AM 24.1 °F - 22.1 °F 92% 30.16 in 10.0 mi Calm Calm - N/A   Clear
1:15 AM 23.9 °F - 21.7 °F 91% 30.16 in 10.0 mi Calm Calm - N/A   Clear
1:55 AM 24.1 °F - 22.3 °F 93% 30.17 in 10.0 mi Calm Calm - N/A   Clear
2:15 AM 22.1 °F - 21.2 °F 96% 30.18 in 10.0 mi Calm Calm - N/A   Clear
2:35 AM 23.9 °F - 22.6 °F 95% 30.19 in 10.0 mi Calm Calm - N/A   Clear
2:55 AM 21.7 °F - 21.6 °F 99% 30.20 in 10.0 mi Calm Calm - N/A   Clear
3:15 AM 22.5 °F - 21.7 °F 97% 30.21 in 10.0 mi Calm Calm - N/A   Clear
3:35 AM 23.9 °F - 22.3 °F 94% 30.22 in 10.0 mi Calm Calm - N/A   Clear
3:55 AM 22.8 °F - 22.3 °F 98% 30.23 in 10.0 mi Calm Calm - N/A   Clear
4:15 AM 22.6 °F - 21.2 °F 94% 30.23 in 10.0 mi Calm Calm - N/A   Clear
4:35 AM 20.3 °F - 19.8 °F 98% 30.23 in 10.0 mi Calm Calm - N/A   Clear
4:55 AM 21.9 °F - 21.4 °F 98% 30.23 in 10.0 mi Calm Calm - N/A   Clear
5:15 AM 20.5 °F - 20.3 °F 99% 30.25 in 10.0 mi Calm Calm - N/A   Clear
5:35 AM 22.3 °F - 21.7 °F 98% 30.26 in 10.0 mi Calm Calm - N/A   Clear
5:55 AM 21.4 °F - 21.4 °F 100% 30.27 in 10.0 mi Calm Calm - N/A   Clear
6:15 AM 20.8 °F - 20.1 °F 97% 30.28 in 10.0 mi Calm Calm - N/A   Clear
6:35 AM 20.7 °F - 19.9 °F 97% 30.29 in 10.0 mi Calm Calm - N/A   Clear
7:15 AM 21.0 °F - 20.7 °F 99% 30.30 in 10.0 mi Calm Calm - N/A   Clear
7:35 AM 20.8 °F - 20.1 °F 97% 30.30 in 10.0 mi Calm Calm - N/A   Clear
7:55 AM 21.2 °F 16.4 °F 20.3 °F 96% 30.31 in 10.0 mi SW 3.5 mph - N/A   Clear
8:15 AM 22.8 °F - 22.5 °F 99% 30.32 in 10.0 mi Calm Calm - N/A   Clear
8:35 AM 26.4 °F - 25.2 °F 95% 30.33 in 10.0 mi Calm Calm - N/A   Clear
8:55 AM 31.6 °F 27.0 °F 28.8 °F 89% 30.33 in 10.0 mi North 4.6 mph - N/A   Clear
9:15 AM 34.3 °F 31.4 °F 31.5 °F 89% 30.36 in 10.0 mi SSE 3.5 mph - N/A   Clear
9:35 AM 38.5 °F - 27.9 °F 66% 30.35 in 10.0 mi Calm Calm - N/A   Clear
10:15 AM 40.1 °F 38.0 °F 27.9 °F 62% 30.37 in 10.0 mi East 3.5 mph - N/A   Clear
10:35 AM 41.0 °F - 27.5 °F 59% 30.38 in 10.0 mi Calm Calm - N/A   Clear
10:55 AM 41.7 °F - 27.7 °F 58% 30.37 in 10.0 mi Calm Calm - N/A   Clear
11:15 AM 42.6 °F - 27.5 °F 55% 30.37 in 10.0 mi Calm Calm - N/A   Clear
11:55 AM 43.7 °F - 28.2 °F 54% 30.35 in 10.0 mi Calm Calm - N/A   Clear
12:15 PM 44.8 °F - 28.2 °F 52% 30.34 in 10.0 mi Calm Calm - N/A   Clear
12:35 PM 45.7 °F - 28.8 °F 52% 30.33 in 10.0 mi Calm Calm - N/A   Clear
12:55 PM 45.9 °F 44.6 °F 28.4 °F 51% 30.31 in 10.0 mi SE 3.5 mph - N/A   Clear
1:15 PM 46.2 °F 44.1 °F 28.4 °F 50% 30.30 in 10.0 mi SSE 4.6 mph - N/A   Clear
1:35 PM 46.8 °F - 26.6 °F 45% 30.30 in 10.0 mi Calm Calm - N/A   Clear
1:55 PM 47.7 °F - 26.6 °F 44% 30.29 in 10.0 mi Calm Calm - N/A   Clear
2:15 PM 47.8 °F - 27.3 °F 45% 30.28 in 10.0 mi Calm Calm - N/A   Clear
2:35 PM 48.2 °F - 27.0 °F 44% 30.28 in 10.0 mi Calm Calm - N/A   Clear
2:55 PM 48.9 °F - 27.5 °F 43% 30.28 in 10.0 mi SSW 5.8 mph - N/A   Clear
3:15 PM 48.6 °F - 26.8 °F 43% 30.28 in 10.0 mi Calm Calm - N/A   Clear
3:35 PM 48.4 °F - 27.5 °F 44% 30.28 in 10.0 mi Calm Calm - N/A   Clear
3:55 PM 48.2 °F - 27.1 °F 44% 30.27 in 10.0 mi Calm Calm - N/A   Clear
4:15 PM 47.3 °F - 27.5 °F 46% 30.27 in 10.0 mi Calm Calm - N/A   Clear
4:35 PM 44.8 °F - 28.6 °F 53% 30.27 in 10.0 mi Calm Calm - N/A   Clear
4:55 PM 42.8 °F - 28.8 °F 58% 30.26 in 10.0 mi Calm Calm - N/A   Clear
5:15 PM 40.5 °F - 28.4 °F 62% 30.26 in 10.0 mi Calm Calm - N/A   Clear
5:35 PM 38.1 °F - 28.2 °F 68% 30.26 in 10.0 mi Calm Calm - N/A   Clear
6:15 PM 37.6 °F 35.1 °F 29.1 °F 72% 30.25 in 10.0 mi ESE 3.5 mph - N/A   Clear
6:35 PM 37.0 °F - 29.5 °F 74% 30.25 in 10.0 mi Calm Calm - N/A   Clear
6:55 PM 37.2 °F 33.6 °F 29.3 °F 73% 30.24 in 10.0 mi ESE 4.6 mph - N/A   Clear
7:15 PM 38.1 °F 34.6 °F 29.3 °F 71% 30.24 in 10.0 mi SE 4.6 mph - N/A   Clear
7:35 PM 40.3 °F 38.2 °F 29.8 °F 66% 30.24 in 10.0 mi SE 3.5 mph - N/A   Clear
7:55 PM 41.0 °F 38.0 °F 29.5 °F 64% 30.23 in 10.0 mi ESE 4.6 mph - N/A   Clear
8:15 PM 40.6 °F 37.5 °F 29.5 °F 64% 30.24 in 10.0 mi SE 4.6 mph - N/A   Clear
8:55 PM 42.3 °F 38.6 °F 29.3 °F 60% 30.22 in 10.0 mi SSE 5.8 mph - N/A   Scattered Clouds
9:15 PM 42.8 °F 39.3 °F 29.3 °F 59% 30.21 in 10.0 mi SSE 5.8 mph - N/A   Mostly Cloudy
9:55 PM 42.3 °F 40.5 °F 30.4 °F 63% 30.21 in 10.0 mi South 3.5 mph - N/A Rain Light Rain
10:15 PM 42.4 °F 38.1 °F 30.7 °F 63% 30.21 in 10.0 mi South 6.9 mph - N/A   Overcast
10:35 PM 41.7 °F 39.8 °F 31.8 °F 68% 30.21 in 10.0 mi SSE 3.5 mph - N/A Rain Light Rain
10:55 PM 41.2 °F 39.2 °F 32.0 °F 70% 30.20 in 10.0 mi SSE 3.5 mph - N/A Rain Light Rain
11:15 PM 41.0 °F 39.0 °F 32.2 °F 71% 30.19 in 10.0 mi SSE 3.5 mph - N/A Rain Rain
11:35 PM 40.8 °F 37.8 °F 32.9 °F 73% 30.18 in 10.0 mi SSE 4.6 mph - N/A Rain Light Rain
11:55 PM 41.4 °F 38.4 °F 32.7 °F 71% 30.18 in 10.0 mi South 4.6 mph - N/A   Overcast